sat.trackr.live / text

‹ back to catalog

STARLINK-32915

NORAD 63152 · 2025-043W

PAYLOAD ACTIVE UNKNOWN

§ Identity

Operator
Country
US
Launch date
2025-03-03
Launch site
AFETR
Launch vehicle
Mass (kg)
RCS (m²)

Purposes: comms

External: N2YO · Heavens-Above · Gunter

§ Orbital elements

Epoch: 2026-05-24T22:25:31.188000Z

Period
94.26 min
Inclination
43.0015°
Eccentricity
0.0002072
Mean motion
15.27608914 rev/d
Perigee alt
481.5 km
Apogee alt
484.4 km
Semi-major
6,861.1 km
B*
9.2500e-4
RAAN
312.4660°
Arg perigee
275.4678°
Mean anomaly
84.5937°
Rev number
6,894

§ Raw data

STARLINK-329151 63152U 25043W   26144.93438875  .00025302  00000+0  92500-3 0  99952 63152  43.0015 312.4660 0002072 275.4678  84.5937 15.27608914 68940

JSON: /api/v1/satellites/63152 · /tle

For live sub-satellite position, see the globe view (requires WebGL).

§ Visibility from observer

Set your observer location to see the next 7 days of passes ≥ 10°. The values pass through the URL so the page stays shareable.

No JS? Fill the form by hand. The geolocation button needs JavaScript.